KOREASAT 5A

Last updated on Mon Sep 07 2026 00:03:00 GMT+0000 (Coordinated Universal Time)

1 42984U 17067A 26249.65817770 -.00000375 00000+0 00000+0 0 9996 2 42984 0.0201 106.6351 0000983 89.0656 140.1541 1.00271685 32346
UTC large
Height (km)
Speed (km/s)
/
Latitude / Longitude
Inclination (degrees)
Orbital Period (minutes)
Azimuth
Elevation
Range (km)
Doppler Factor

Next 0 passes for location: London (51.5072 / 0.1276)

No passes found over London.
KOREASAT 5A